Location: Arrecife
(10.5858°N, 67.0742°W)
Time: 21:58:42
(UTC+00:00)

Hubble Space Telescope - Pass Details

Date: 04 December 2022
Orbit: 529 x 532 km, 28.5° (Epoch: 06 February)

Event Time Altitude Azimuth Distance (km) Brightness Sun altitude
Exits shadow 08:58:52 74° 213° (SSW) 547 0.6 -22.3°
Maximum altitude 08:59:11 82° 151° (SSE) 532 0.7 -22.2°
Drops below altitude 10° 09:03:15 10° 64° (ENE) 1,758 4.0 -21.3°
Sets 09:05:30 0° 63° (ENE) 2,645 4.9 -20.8°
